Tracking 35275 objects as of 8-Sep-2026
HD Live streaming from Space Station
objects crossing your sky now

MDASAT-1A


MDASAT-1A is no longer on orbit
MDASAT-1A is classified as:


NORAD ID: 50995
Int'l Code: 2022-002M
Launch date: January 13, 2022
Source: South Africa (SAFR)
Launch site: AIR FORCE EASTERN TEST RANGE (AFETR)
Decay date: 2025-05-13

Uplink (MHz):
Downlink (MHz): 401.050
Beacon (MHz):
Mode: 9k6 GMSK
Call sign:
Status: Reentered

Your satellite tracking list
Your tracking list is empty




NASA's NSSDC Master Catalog

Two Line Element Set (TLE):
1 50995U 22002M   25126.58679728  .06929084  24731-5  92854-3 0  9993
2 50995  97.3193 208.2305 0012290 264.4576  95.5320 16.35250920184662
Source of the keplerian elements: AFSPC